www.pogodaiklimat.ru
ПОГОДА в Большом Пороге
Время
(UTC), дата
18 24.03
21 24.03
00 25.03
03 25.03
06 25.03
09 25.03
12 25.03
15 25.03
18 25.03
00 26.03
03 26.03
06 26.03
09 26.03
12 26.03
15 26.03
18 26.03
00 27.03
03 27.03
06 27.03
09 27.03
12 27.03
15 27.03
18 27.03
21 27.03
00 28.03
03 28.03
06 28.03
09 28.03
12 28.03
15 28.03
18 28.03
21 28.03
00 29.03
03 29.03
06 29.03
09 29.03
12 29.03
15 29.03
18 29.03
21 29.03
00 30.03
03 30.03
06 30.03
09 30.03
12 30.03
15 30.03
18 30.03
00 31.03
03 31.03
06 31.03
09 31.03
12 31.03
Ветер
(напр.,м/с)
Видим. Явления Облачность Т
(С)
Тd
(С)
f
(%)
Тe
(С)
Тes
(С)
Комфортность P
(гПа)
Po
(гПа)
Тmin
(С)
Tmax
(С)
R
(мм)
R24
(мм)
S
(см)
ЮВ 3 н/о снег 10 баллов -8.0 -9.8 87 -14 -14 1012.7 1004.0
В 2 н/о слаб. снег 10 баллов -7.2 -9.3 85 -12 -12 1011.4 1002.7
штиль 0 10 км слаб. снег 10/0
[As op]
-7.5 -8.8 90 -8 -8 1011.6 1003.0 -10.3 3 96
С 2 20 км 9 баллов -6.3 -9.5 78 -11 -10 1015.4 1006.7
СЗ 2 20 км 5 баллов -4.2 -9.8 65 -8 -6 1017.9 1009.3
З 2 20 км 9 баллов -1.8 -9.6 55 -5 -5 1019.3 1010.7
З 1 20 км 10/10 600 м
[Cb cap]
-2.8 -9.0 62 -5 -5 1020.2 1011.5 -0.2 0.0
ЮВ 1 н/о 9 баллов -4.6 -8.2 76 -7 -7 1022.0 1013.3
ЮВ 1 н/о 2 балла -6.0 -10.8 69 -8 -8 1020.7 1012.0
В 1 20 км 10/0
[Cs]
-7.5 -10.1 82 -10 -10 1016.1 1007.4 -8.9 93
ЮВ 2 20 км 10 баллов -5.5 -9.2 75 -10 -10 1013.9 1005.3
ЮВ 2 4000 м снег 10 баллов -3.3 -5.8 83 -7 -7 1011.2 1002.7
ЮВ 4 4000 м снег 10 баллов -2.4 -4.6 85 -8 -8 1009.8 1001.3
В 3 10 км слаб. снег {метель} 10/8 600 м
[Sc Ac As]
-1.8 -3.9 86 -7 -7 1006.3 997.9 -1.4 3
ЮВ 2 н/о слаб. снег 10 баллов -1.4 -3.7 84 -5 -5 1005.7 997.3
В 2 н/о слаб. снег 10 баллов -1.7 -2.8 92 -6 -6 1001.7 993.3
ЮВ 1 10 км слаб. снег 10/10 600 м
[Sc]
-1.6 -2.1 96 -4 -4 996.8 988.5 -2.2 1 96
ЮВ 2 4000 м слаб. снег 10 баллов -1.9 -2.7 94 -6 -6 996.4 988.0
ЮВ 2 10 км слаб. снег 10 баллов -1.1 -2.1 93 -5 -5 993.6 985.3
ЮВ 3 4000 м слаб. снег 10 баллов -1.4 -2.5 92 -6 -6 992.3 984.0
ЮВ 2 4000 м снег 10/0 600 м
[As op]
-1.5 -2.0 96 -6 -6 990.9 982.6 -1.1 3
ЮВ 1 н/о 10 баллов -1.9 -2.7 94 -4 -4 991.0 982.7
ЮВ 1 н/о 10 баллов -2.4 -3.7 91 -5 -5 991.0 982.7
ЮВ 3 н/о 10 баллов -3.2 -3.9 95 -9 -9 989.6 981.3
ЮВ 1 20 км 10/10 1000 м
[Sc]
-3.7 -4.5 94 -6 -6 988.6 980.2 -4.2 0.3 96
В 1 10 км слаб. снег 10 баллов -2.6 -3.3 95 -5 -5 989.6 981.3
штиль 0 10 км слаб. ливневой снег 10 баллов -2.0 -3.9 87 -3 -3 989.6 981.3
З 2 20 км в посл. час ливневой снег 10 баллов -1.2 -3.6 84 -5 -5 992.3 984.0
СЗ 2 20 км {ливн. осадки} 10/5 600 м
[Cb cap Ac trans Ci fib]
-2.4 -7.6 67 -6 -6 993.4 985.1 -1.0 0.9
В 1 н/о слаб. снег 10 баллов -3.2 -3.9 95 -6 -6 996.4 988.0
З 2 н/о 10 баллов -3.8 -5.3 89 -8 -8 997.7 989.3
З 2 н/о 10 баллов -6.0 -8.3 84 -10 -10 999.2 990.7
штиль 0 10 км слаб. ливневой снег 10/6 600 м
[Cb cap Ac lent Ci fib]
-6.6 -9.4 80 -7 -7 1000.6 992.1 -7.3 1 98
З 2 20 км в посл. час ливневой снег 9 баллов -4.4 -8.7 72 -8 -8 1001.8 993.3
СЗ 2 20 км слаб. ливневой снег 9 баллов -3.9 -8.4 71 -8 -7 1003.2 994.7
З 2 20 км 9 баллов -2.2 -8.9 60 -6 -5 1004.4 996.0
Ю 2 20 км {ливн. осадки} 9/8 600 м
[Cb cap Ci fib]
-2.0 -8.6 61 -5 -5 1003.5 995.1 -1.7 0.2
штиль 0 н/о 6 баллов -4.1 -7.5 77 -5 -5 1004.5 996.0
Ю 2 н/о слаб. снег 10 баллов -4.2 -5.7 89 -8 -8 1001.8 993.3
ЮВ 3 н/о слаб. снег 10 баллов -3.6 -4.7 92 -9 -9 1000.5 992.0
ЮВ 4 2000 м снег 10/8 1000 м
[Sc Ac As]
-2.9 -3.9 93 -9 -9 992.9 984.6 -5.3 3 97
-14
{17}
метель {снег} н/о -7.5 992.9 984.6 -5.8
Ю 8-11
{14}
10 км слаб. ливневой снег 9/8 600 м
[Cb cap Ac trans]
-1.4 -7.3 64 -9 -9 996.0 987.7
ЮЗ 6-11
{13}
10 км слаб. ливневой снег {метель} 9/9 600 м
[Cb cap]
-2.1 -7.1 69 -9 -9 998.8 990.5
Ю 3
{14}
20 км {ливн. осадки, метель} 8/4 600 м
[Cb cap Ac cast Ci fib]
-1.7 -7.8 63 -6 -6 999.6 991.3 -0.4 2
З 3 н/о 9 баллов -3.4 -7.0 76 -9 -9 1001.8 993.3
З 2 н/о 7 баллов -4.8 -9.6 69 -9 -9 1003.2 994.7
СЗ 2 20 км 8/8 600 м
[Cb cap Ac trans]
-7.8 -11.4 75 -12 -12 1007.2 998.5 -8.0 0.0 97
З 1 20 км 9 баллов -6.9 -10.7 74 -9 -9 1009.9 1001.3 -8.8
З 1 20 км 7 баллов -3.4 -9.8 61 -5 -3 1008.5 1000.0
З 1 20 км 9 баллов -4.7 -10.5 64 -7 -6 1008.6 1000.0
СЗ 2 20 км {ливн. осадки} 9/8 600 м
[Cb cap Ci fib]
-5.5 -7.3 87 -10 -10 1009.2 1000.6 -2.6 0.5
Местоположение метеостанции Большой Порог (Эвенкия, Россия): широта 65.63 долгота 90.05 высота над уровнем моря 67 м.
В архиве по умолчанию представлена погода в Большом Пороге за последнюю неделю. Архивные данные за месяц целиком и за предыдущие месяцы, начиная с января 2011 года, Вы можете получить, выбрав интересующий диапазон дат из раскрывающегося списка и нажав кнопку "Найти!".
*Определитесь, кто Вы:
Внимание! Время в таблицах - всемирное. Для получения местного времени необходимо прибавить поправку, которая равна 7 ч.
Смотрите также архив погоды в соседних городах и на ближайших метеорологических станциях:
Партнеры нашего сайта:      
Пояснения к столбцам:
  • Ветер - указаны скорость ветра в м/с - средняя за 10 мин, порывы в срок и между сроками (в фигурных скобках) и направление, откуда дует ветер: С - северный,
  • СВ - северо-восточный, В - восточный, ЮВ - юго-восточный, Ю - южный, ЮЗ - юго-западный, З - западный, СЗ - северо-западный.
  • Видимость - горизонтальная дальность видимости в метрах или километрах. При видимости от 1 до 10 км при отсутствии осадков обычно наблюдается дымка, при ухудшении видимости до 1 км и менее - туман. В сухую погоду видимость может ухудшаться дымом, пылью или мглою.
  • Явления - указаны атмосферные явления, наблюдавшиеся в срок или в последний час перед сроком; фигурными скобками обозначены явления, наблюдавшиеся между сроками (за 1-3 часа до срока); квадратными скобками обозначены град или гололедные отложения с указанием их диаметра в мм.
  • Облачность - указаны через наклонную черту общая и нижняя облачность в баллах и высота нижней границы облаков в метрах; квадратными скобками обозначены формы облаков: Ci - перистые, Cs - перисто-слоистые, Cc - перисто-кучевые, Ac - высококучевые, As - высокослоистые, Sc - слоисто-кучевые, Ns - слоисто-дождевые, Cu - кучевые, Cb - кучево-дождевые. Подробнее классификацию облаков см. в Атласе облаков (PDF).
  • T - Температура воздуха - температура, измеренная на высоте 2 м над землей.
  • Td - Температура точки росы - температура, при понижении до которой содержащийся в воздухе водяной пар достигнет насыщения.
  • f - Относительная влажность воздуха - влажноcть воздуха, измеренная на высоте 2 м над землей.
  • Te - Эффективная температура - температура, которую ощущает одетый по сезону человек в тени. Характеристика душности погоды. При расчете учитывается влияние влажности воздуха и скорости ветра на теплоощущения человека.
  • Tes - Эффективная температура на солнце - температура, которую ощущает человек, с поправкой на солнечный нагрев. Характеристика знойности погоды. Зависит от высоты солнца над горизонтом, облачности и скорости ветра. Ночью, в пасмурную погоду, а также при ветре 12 м/с и более поправка равна нулю.
  • P - Атмосферное давление - приведенное к уровню моря атмосферное давление.
  • Po - Атмосферное давление - измеренное на уровне метеостанции атмосферное давление.
  • Tmin - Минимальная температура - минимум температуры воздуха на высоте 2 м над землей.
  • Tmax - Максимальная температура - максимум температуры воздуха на высоте 2 м над землей.
  • R - Количество осадков - Количество выпавших осадков за период времени, мм. При наведении курсора мыши на число - период времени, за который выпало указанное количество осадков.
  • R24 - Количество осадков - Количество выпавших осадков за 24 часа, мм.
  • S - Снежный покров - Высота снежного покрова, см. При наведении курсора мыши на число - состояние снежного покрова и степень покрытия местности в баллах.